Seneca, SC

9:43 PM EST on January 19, 2017 (GMT -0500)
Oconee County Regional

Weather History for KCEU - January, 2013

Change the Weather History Date:

Friday, January 4, 2013

  Actual Average Record
Temperature  
Mean Temperature 42 °F -  
Max Temperature 55 °F 52 °F 76 °F (1955)
Min Temperature 28 °F 32 °F 11 °F (1979)
Degree Days  
Heating Degree Days 24    
Moisture  
Dew Point 27 °F    
Average Humidity 72    
Maximum Humidity 93    
Minimum Humidity 20    
Precipitation  
Precipitation 0.00 in - - ()
Sea Level Pressure  
Sea Level Pressure 30.31 in    
Wind  
Wind Speed 1 mph (West)    
Max Wind Speed 13 mph    
Max Gust Speed 21 mph    
Visibility 5 miles    
Events Fog    
Averages and records for this station are not official NWS values.
T = Trace of Precipitation, MM = Missing Value Source: NWS Daily Summary

Daily Weather History Graph

Daily Weather History Graph

Search for Another Location

Airport or City:

Trip Planner

Search our weather history database for the weather conditions in past years. The results will help you decide how hot, cold, wet, or windy it might be!

Date:

Astronomy

Jan. 04, 2013 Rise Set
Actual Time 7:39 AM EST 5:34 PM EST
Civil Twilight 7:11 AM EST 6:02 PM EST
Nautical Twilight 6:40 AM EST 6:33 PM EST
Astronomical Twilight 6:09 AM EST 7:04 PM EST
Moon No Moon Rise 11:40 AM EST (1/4)
Length of Visible Light 10h 50m
Length of Day
9h 55m
Waning Gibbous, 55% of the Moon is Illuminated
Jan 4
Waning Gibbous
Jan 4
Last Quarter
Jan 11
New
Jan 18
First Quarter
Jan 26
Full

Hourly Weather History & Observations

Time (EST) Temp. Windchill Dew Point Humidity Pressure Visibility Wind Dir Wind Speed Gust Speed Precip Events Conditions
12:54 AM 39.0 °F - 32.0 °F 76% 30.30 in 10.0 mi Calm Calm - N/A   Clear
1:10 AM 39.2 °F - 33.8 °F 81% 30.29 in 10.0 mi Calm Calm - N/A   Mostly Cloudy
1:54 AM 37.9 °F - 32.0 °F 79% 30.30 in 10.0 mi Calm Calm - N/A   Mostly Cloudy
2:02 AM 37.4 °F - 32.0 °F 81% 30.29 in 9.0 mi Calm Calm - N/A   Scattered Clouds
2:54 AM 36.0 °F - 32.0 °F 86% 30.30 in 6.0 mi Calm Calm - N/A   Clear
3:05 AM 35.6 °F - 30.2 °F 81% 30.29 in 1.5 mi Calm Calm - N/A   Partly Cloudy
3:07 AM 33.8 °F - 30.2 °F 87% 30.29 in 0.8 mi Calm Calm - N/A   Mist
3:10 AM 33.8 °F - 30.2 °F 87% 30.29 in 0.2 mi Calm Calm - N/A Fog Fog
3:24 AM 35.6 °F - 30.2 °F 81% 30.29 in 1.0 mi Calm Calm - N/A   Mist
3:34 AM 33.8 °F - 30.2 °F 87% 30.29 in 0.2 mi Calm Calm - N/A Fog Fog
3:54 AM 32.0 °F - 28.0 °F 85% 30.30 in 0.2 mi Calm Calm - N/A Fog Fog
4:14 AM 33.8 °F - 30.2 °F 87% 30.28 in 0.8 mi Calm Calm - N/A   Mist
4:25 AM 33.8 °F - 30.2 °F 87% 30.28 in 0.2 mi Calm Calm - N/A Fog Fog
4:35 AM 33.8 °F - 30.2 °F 87% 30.28 in 0.8 mi Calm Calm - N/A   Mist
4:54 AM 32.0 °F - 28.9 °F 88% 30.29 in 0.5 mi Calm Calm - N/A Fog Fog
5:11 AM 30.2 °F - 28.4 °F 93% 30.29 in 1.5 mi Calm Calm - N/A   Scattered Clouds
5:14 AM 30.2 °F - 28.4 °F 93% 30.29 in 2.5 mi Calm Calm - N/A   Mostly Cloudy
5:17 AM 30.2 °F - 28.4 °F 93% 30.29 in 0.8 mi Calm Calm - N/A   Mist
5:42 AM 30.2 °F - 28.4 °F 93% 30.29 in 0.2 mi Calm Calm - N/A Fog Light Freezing Fog
5:54 AM 30.9 °F - 28.0 °F 89% 30.31 in 0.2 mi Calm Calm - N/A Fog Light Freezing Fog
6:27 AM 30.2 °F - 26.6 °F 86% 30.30 in 0.8 mi Calm Calm - N/A   Mist
6:45 AM 30.2 °F - 26.6 °F 86% 30.31 in 1.8 mi Calm Calm - N/A   Overcast
6:52 AM 30.2 °F - 26.6 °F 86% 30.31 in 2.0 mi Calm Calm - N/A   Mostly Cloudy
6:54 AM 30.0 °F - 26.1 °F 85% 30.32 in 2.0 mi Calm Calm - N/A   Mostly Cloudy
7:02 AM 28.4 °F - 26.6 °F 93% 30.31 in 8.0 mi Calm Calm - N/A   Scattered Clouds
7:13 AM 30.2 °F - 26.6 °F 86% 30.32 in 2.5 mi Calm Calm - N/A   Mostly Cloudy
7:21 AM 30.2 °F - 26.6 °F 86% 30.31 in 1.0 mi Calm Calm - N/A   Mist
7:35 AM 30.2 °F - 26.6 °F 86% 30.32 in 4.0 mi Calm Calm - N/A   Scattered Clouds
8:09 AM 30.2 °F - 26.6 °F 86% 30.33 in 0.8 mi Calm Calm - N/A   Mist
8:20 AM 30.2 °F - 28.4 °F 93% 30.34 in 0.2 mi Calm Calm - N/A Fog Light Freezing Fog
8:54 AM 32.0 °F - 28.9 °F 88% 30.36 in 0.2 mi Calm Calm - N/A Fog Fog
9:16 AM 33.8 °F - 32.0 °F 93% 30.35 in 1.0 mi Calm Calm - N/A   Mist
9:21 AM 33.8 °F - 32.0 °F 93% 30.35 in 6.0 mi Calm Calm - N/A   Scattered Clouds
9:41 AM 37.4 °F - 33.8 °F 87% 30.35 in 1.8 mi Calm Calm - N/A   Partly Cloudy
9:54 AM 37.0 °F - 34.0 °F 89% 30.36 in 1.5 mi Calm Calm - N/A   Scattered Clouds
10:01 AM 37.4 °F - 33.8 °F 87% 30.35 in 3.0 mi Calm Calm - N/A   Scattered Clouds
10:54 AM 43.0 °F - 33.1 °F 68% 30.36 in 10.0 mi Calm Calm - N/A   Clear
11:54 AM 48.0 °F - 25.0 °F 41% 30.33 in 10.0 mi West 8.1 mph - N/A   Clear
12:54 PM 50.0 °F - 23.0 °F 35% 30.29 in 10.0 mi SSW 4.6 mph - N/A   Clear
1:54 PM 53.1 °F - 21.9 °F 30% 30.26 in 10.0 mi WSW 10.4 mph - N/A   Clear
2:54 PM 54.0 °F - 21.0 °F 28% 30.24 in 10.0 mi Variable 4.6 mph - N/A   Clear
3:54 PM 55.9 °F - 16.0 °F 21% 30.24 in 10.0 mi WSW 10.4 mph - N/A   Clear
4:54 PM 54.0 °F - 12.9 °F 20% 30.25 in 10.0 mi West 12.7 mph 20.7 mph N/A   Clear
5:54 PM 48.9 °F - 19.0 °F 31% 30.28 in 10.0 mi West 10.4 mph - N/A   Clear
6:54 PM 46.9 °F - 18.0 °F 32% 30.31 in 10.0 mi WNW 9.2 mph - N/A   Clear
7:54 PM 46.0 °F 40.2 °F 10.9 °F 24% 30.32 in 10.0 mi WNW 12.7 mph - N/A   Clear
8:54 PM 44.1 °F 38.6 °F 12.0 °F 27% 30.34 in 10.0 mi NW 10.4 mph - N/A   Clear
9:54 PM 42.1 °F 36.6 °F 15.1 °F 34% 30.35 in 10.0 mi NNW 9.2 mph - N/A   Clear
10:54 PM 39.0 °F 34.0 °F 17.1 °F 41% 30.35 in 10.0 mi NW 6.9 mph - N/A   Clear
11:54 PM 37.9 °F - 18.0 °F 45% 30.35 in 10.0 mi Calm Calm - N/A   Clear